[[{"header":{"parameterUnit":"m.s-1","parameterCategory":1,"la1":30.2991,"la2":30.254,"lo1":-89.0895,"lo2":-89.0444,"dy":0.0017,"dx":0.0017,"nx":28,"ny":28,"refTime":"2024-05-13T21:00:00:Z","depth":0,"parameterNumber":2,"parameterNumberName":"U-component_of_WINDS"},"data":[0,0,0,0,0,0,0,0,0,0,0,0,0,0,0,0,0,0,0,0,0,0,0,0,0,0,0,0,0,0,0,0,0,0,0,0,0,0,0,0,0,0,0,0,0,0,0,0,0,0,0,0,0,0,0,0,0,0,-2.4862,-2.4864,0,-2.5008,-2.501,-2.5011,-2.4993,-2.499,-2.4988,-2.4986,-2.5138,-2.5144,-2.515,0,0,0,0,0,0,0,0,0,0,0,0,0,-2.4572,-2.4577,-2.4862,-2.4864,-2.4866,-2.5008,-2.501,-2.5012,-2.4993,-2.499,-2.4987,-2.4985,-2.5136,-2.5143,-2.5151,0,0,0,0,0,0,0,0,0,0,0,0,0,-2.4706,-2.4579,-2.4862,-2.4873,-2.4876,-2.5007,-2.501,-2.5012,-2.4994,-2.499,-2.4987,-2.4983,-2.5134,-2.5143,-2.5152,-2.5282,0,0,-2.5181,-2.5185,0,0,0,0,0,0,0,0,-2.4698,-2.4717,-2.487,-2.4873,-2.4876,-2.4978,-2.4963,-2.5103,-2.4995,-2.4949,-2.4986,-2.4981,-2.5088,-2.5101,-2.5136,-2.5289,-2.5296,-2.5182,-2.5187,-2.5191,-2.5194,0,0,0,0,0,0,0,-2.4689,-2.471,-2.492,-2.4872,-2.4876,-2.4873,-2.4888,-2.499,-2.5037,-2.4953,-2.4952,-2.4969,-2.5089,-2.5127,-2.514,-2.5298,-2.5181,-2.519,-2.5196,-2.5199,-2.5567,-2.5571,0,0,0,0,0,0,-2.4676,-2.4703,-2.4915,-2.4924,-2.4776,-2.4881,-2.4898,-2.4949,-2.5036,-2.5046,-2.4972,-2.4968,-2.5113,-2.5129,-2.5145,-2.5305,-2.5191,-2.52,-2.5206,-2.5563,-2.5568,-2.5573,0,0,0,0,0,0,-2.467,-2.4695,-2.4909,-2.4813,-2.484,-2.489,-2.4948,-2.4954,-2.4992,-2.505,-2.5059,-2.5002,-2.5111,-2.5132,-2.5248,-2.531,-2.5204,-2.5213,-2.5558,-2.5565,-2.557,-2.5624,0,0,0,0,0,0,-2.4662,-2.4693,-2.4742,-2.4814,-2.4845,-2.5009,-2.4951,-2.4959,-2.5008,-2.5004,-2.5081,-2.509,-2.5109,-2.5234,-2.5258,-2.5321,-2.522,-2.5553,-2.5561,-2.5568,-2.5617,-2.5631,-2.5643,0,0,0,0,0,-2.4651,-2.4751,-2.4745,-2.477,-2.4907,-2.5013,-2.5031,-2.505,-2.5013,-2.5063,-2.5101,-2.5088,-2.5299,-2.5246,-2.5273,-2.5339,-2.5549,-2.5559,-2.5568,-2.5611,-2.5628,-2.5643,0,0,0,0,0,0,-2.4686,-2.4761,-2.4754,-2.488,-2.494,-2.5009,-2.5073,-2.5067,-2.5139,-2.5133,-2.5154,-2.5172,-2.529,-2.5326,-2.5267,-2.5471,-2.5419,-2.5434,-2.5443,-2.546,-2.5473,-2.5463,-2.5228,0,0,0,0,0,-2.4708,-2.4786,-2.4848,-2.4953,-2.4984,-2.5023,-2.507,-2.508,-2.5143,-2.5168,-2.5214,-2.5278,-2.5358,-2.5411,-2.5488,-2.5622,-2.564,-2.5681,-2.5694,-2.5705,-2.5718,-2.5794,-2.5813,-2.5603,-2.5603,-2.5603,0,0,-2.4754,-2.4805,-2.4853,-2.4962,-2.5009,-2.5091,-2.5045,-2.5133,-2.5195,-2.5182,-2.5295,-2.5332,-2.5403,-2.553,-2.5588,-2.5563,-2.578,-2.5716,-2.5724,-2.5732,-2.5805,-2.5825,-2.5843,-2.5609,-2.5608,-2.5607,0,0,-2.4882,-2.4927,-2.5021,-2.507,-2.5142,-2.5168,-2.519,-2.5261,-2.5285,-2.5398,-2.5391,-2.5465,-2.5603,-2.5656,-2.57,-2.5849,-2.5841,-2.5874,-2.5943,-2.6017,-2.6034,-2.6048,-2.6104,-2.6123,-2.5886,-2.5886,-2.5886,0,-2.4931,-2.5053,-2.507,-2.516,-2.5209,-2.52,-2.5297,-2.5344,-2.5438,-2.5473,-2.5444,-2.5618,-2.5666,-2.5805,-2.5842,-2.5877,-2.5906,-2.5865,-2.603,-2.6045,-2.6059,-2.6112,-2.6133,-2.589,-2.589,-2.5889,-2.5889,0,-2.5112,-2.5197,-2.5264,-2.5355,-2.5411,-2.5504,-2.5536,-2.5591,-2.5596,-2.5626,-2.5743,-2.58,-2.589,-2.5924,-2.5929,-2.6065,-2.6048,-2.6024,-2.5973,-2.6082,-2.6133,-2.6153,-2.5895,-2.5894,-2.5893,-2.5892,0,0,-2.5265,-2.5364,-2.5389,-2.5431,-2.5511,-2.5578,-2.5671,-2.5758,-2.5806,-2.5871,-2.5952,-2.6069,-2.6048,-2.6099,-2.6111,-2.6175,-2.6293,-2.6144,-2.6146,-2.6171,-2.6449,-2.6467,-2.6491,-2.6287,-2.6291,-2.6294,-2.6443,0,-2.5402,-2.5565,-2.5584,-2.5731,-2.5811,-2.5804,-2.5886,-2.5945,-2.5975,-2.6049,-2.6083,-2.6167,-2.6131,-2.6162,-2.6225,-2.6265,-2.6349,-2.6254,-2.6364,-2.6368,-2.6348,-2.6517,-2.6537,-2.6675,-2.6463,-2.6466,-2.6469,0,-2.5583,-2.5654,-2.5808,-2.5879,-2.5913,-2.5986,-2.6068,-2.6138,-2.6205,-2.6223,-2.628,-2.6284,-2.6382,-2.6326,-2.6463,-2.6399,-2.6445,-2.6471,-2.6477,-2.649,-2.6426,-2.6536,-2.6719,-2.6741,-2.6499,-2.6497,-2.6495,0,-2.5683,-2.5816,-2.5926,-2.5962,-2.6046,-2.6098,-2.6136,-2.6199,-2.6251,-2.6323,-2.6358,-2.6441,-2.6487,-2.6552,-2.6579,-2.6535,-2.6716,-2.6661,-2.6736,-2.6736,-2.6776,-2.6773,-2.6971,-2.6802,-2.6801,-2.6801,-2.6801,0,-2.5835,-2.593,-2.5972,-2.604,-2.6148,-2.6169,-2.6275,-2.6311,-2.6368,-2.6444,-2.6443,-2.6515,-2.6546,-2.6623,-2.6645,-2.6757,-2.6777,-2.6796,-2.6801,-2.6798,-2.6796,-2.683,-2.6822,-2.6807,-2.6805,-2.6804,-2.6803,0,-2.5965,-2.5996,-2.6116,-2.6186,-2.6206,-2.6282,-2.6343,-2.641,-2.6439,-2.6536,-2.656,-2.6607,-2.6699,-2.6732,-2.6843,-2.6858,-2.6989,-2.6984,-2.6966,-2.6967,-2.7041,-2.7035,-2.727,-2.7303,-2.7109,-2.7111,-2.7112,0,-2.6061,-2.6134,-2.6212,-2.6262,-2.6302,-2.6383,-2.6436,-2.646,-2.6515,-2.6598,-2.6656,-2.6746,-2.682,-2.6967,-2.7012,-2.7098,-2.7098,-2.7174,-2.7111,-2.7105,-2.7102,-2.7098,-2.7107,-2.7187,-2.7189,-2.719,-2.7191,0,-2.6229,-2.6241,-2.6316,-2.6399,-2.6461,-2.6527,-2.6591,-2.6633,-2.6667,-2.6729,-2.6822,-2.688,-2.6993,-2.7084,-2.7172,-2.7213,-2.721,-2.7211,-2.7233,-2.7231,-2.7219,-2.7229,-2.7,-2.7206,-2.7204,-2.7203,-2.7202,-2.7202,-2.6347,-2.6412,-2.6478,-2.6562,-2.6613,-2.6673,-2.674,-2.6777,-2.6855,-2.6949,-2.6958,-2.7059,-2.7127,-2.7244,-2.7289,-2.737,-2.7349,-2.7381,-2.7389,-2.7398,-2.7404,-2.7204,-2.7386,-2.7385,-2.7385,-2.7385,-2.7384,0,-2.6517,-2.6559,-2.6636,-2.6726,-2.6793,-2.6781,-2.6852,-2.691,-2.6998,-2.706,-2.7133,-2.7241,-2.733,-2.7382,-2.7472,-2.7527,-2.7527,-2.755,-2.7547,-2.7557,-2.7416,-2.7389,-2.7548,-2.7548,-2.7547,-2.7547,-2.7547,-2.7547,-2.6614,-2.6725,-2.6745,-2.6882,-2.6923,-2.7021,-2.7063,-2.7119,-2.717,-2.729,-2.7363,-2.7396,-2.7456,-2.755,-2.7631,-2.7645,-2.7679,-2.7704,-2.7716,-2.7583,-2.7567,-2.7551,-2.7526,-2.771,-2.771,-2.785,-2.7852,-2.7853]},{"header":{"parameterUnit":"m.s-1","parameterCategory":1,"la1":30.2991,"la2":30.254,"lo1":-89.0895,"lo2":-89.0444,"dy":0.0017,"dx":0.0017,"nx":28,"ny":28,"refTime":"2024-05-13T21:00:00:Z","depth":0,"parameterNumber":3,"parameterNumberName":"V-component_of_WINDS"},"data":[0,0,0,0,0,0,0,0,0,0,0,0,0,0,0,0,0,0,0,0,0,0,0,0,0,0,0,0,0,0,0,0,0,0,0,0,0,0,0,0,0,0,0,0,0,0,0,0,0,0,0,0,0,0,0,0,0,0,5.0197,5.0197,0,5.0192,5.0192,5.0192,5.0113,5.0111,5.0109,5.0107,5.0101,5.0103,5.0104,0,0,0,0,0,0,0,0,0,0,0,0,0,5.0138,5.014,5.0197,5.0197,5.0197,5.0192,5.0192,5.0192,5.0113,5.0111,5.0108,5.0106,5.0101,5.0103,5.0105,0,0,0,0,0,0,0,0,0,0,0,0,0,5.0152,5.014,5.0197,5.0157,5.0153,5.0192,5.0192,5.0192,5.0114,5.0111,5.0108,5.0105,5.01,5.0102,5.0105,5.0181,0,0,5.0113,5.0114,0,0,0,0,0,0,0,0,5.0151,5.0154,5.0163,5.016,5.0156,5.015,5.0169,5.0188,5.0115,5.0129,5.0107,5.0103,5.012,5.012,5.0126,5.018,5.018,5.0113,5.0115,5.0116,5.0116,0,0,0,0,0,0,0,5.015,5.0154,5.0195,5.0163,5.0159,5.0139,5.0138,5.0172,5.0141,5.0127,5.0122,5.0122,5.0117,5.0124,5.0125,5.018,5.0113,5.0115,5.0117,5.0118,5.0296,5.0299,0,0,0,0,0,0,5.0155,5.0153,5.0195,5.0195,5.0146,5.0143,5.0141,5.0155,5.0141,5.0135,5.0125,5.0118,5.0121,5.0122,5.0125,5.0212,5.0116,5.0118,5.0119,5.0293,5.0297,5.0301,0,0,0,0,0,0,5.0154,5.0159,5.0195,5.0172,5.0175,5.0147,5.0163,5.0156,5.0163,5.0139,5.0133,5.0137,5.0119,5.0121,5.0167,5.0211,5.0119,5.0121,5.0289,5.0294,5.0299,5.0387,0,0,0,0,0,0,5.0152,5.0159,5.0188,5.0174,5.0177,5.0238,5.0166,5.0158,5.0167,5.0159,5.0149,5.0144,5.0116,5.0164,5.017,5.0212,5.0123,5.0285,5.0292,5.0297,5.038,5.0394,5.0407,0,0,0,0,0,5.0151,5.0213,5.019,5.0195,5.0212,5.0241,5.0242,5.021,5.0171,5.0199,5.0184,5.0144,5.0206,5.0169,5.0175,5.0219,5.0282,5.029,5.0297,5.0374,5.0392,5.0406,0,0,0,0,0,0,5.0232,5.021,5.0184,5.0244,5.0245,5.0227,5.0262,5.0229,5.0241,5.0233,5.0192,5.019,5.0242,5.0236,5.0196,5.0292,5.0237,5.0246,5.0294,5.031,5.0323,5.0323,5.0126,0,0,0,0,0,5.0257,5.0282,5.0262,5.0316,5.0318,5.029,5.0301,5.0276,5.0276,5.0275,5.0263,5.0264,5.0283,5.0297,5.0313,5.038,5.0376,5.0413,5.0426,5.0437,5.0445,5.0479,5.0495,5.0324,5.0324,5.0324,0,0,5.0308,5.03,5.0318,5.0332,5.033,5.0357,5.0291,5.0322,5.0341,5.028,5.0322,5.0314,5.0312,5.0369,5.0393,5.0365,5.0492,5.0447,5.0455,5.0457,5.0488,5.0504,5.0519,5.0329,5.0328,5.0327,0,0,5.0415,5.0412,5.0456,5.0456,5.0454,5.0435,5.0446,5.0434,5.0426,5.0469,5.0423,5.0446,5.048,5.0481,5.0485,5.0595,5.0558,5.0602,5.0669,5.0703,5.0717,5.0728,5.0766,5.078,5.0609,5.061,5.061,0,5.0479,5.0518,5.0483,5.0518,5.0525,5.0472,5.0517,5.0518,5.0522,5.0528,5.0497,5.0539,5.0534,5.0589,5.0616,5.0623,5.0633,5.0601,5.0718,5.0729,5.0739,5.0775,5.0789,5.0615,5.0614,5.0614,5.0613,0,5.0596,5.0624,5.066,5.0665,5.0677,5.0717,5.0688,5.0704,5.0679,5.0664,5.0708,5.07,5.0714,5.0726,5.0702,5.0779,5.0761,5.0725,5.0668,5.0761,5.0794,5.0808,5.0622,5.062,5.0619,5.0617,0,0,5.0751,5.0738,5.0752,5.0754,5.0748,5.0769,5.0807,5.0821,5.0835,5.084,5.087,5.0901,5.0867,5.0873,5.0848,5.0878,5.0964,5.0837,5.0837,5.086,5.1048,5.1074,5.109,5.0941,5.0943,5.0945,5.1047,0,5.0853,5.0916,5.0887,5.0953,5.0978,5.0929,5.0961,5.0962,5.0949,5.0969,5.0955,5.0977,5.0931,5.0934,5.0962,5.0948,5.1001,5.094,5.0967,5.0969,5.0967,5.1108,5.1135,5.1232,5.106,5.1062,5.1064,0,5.098,5.0991,5.1059,5.105,5.1059,5.1089,5.11,5.1119,5.1119,5.1108,5.1115,5.1084,5.1119,5.1066,5.1114,5.1074,5.1083,5.1078,5.1081,5.1081,5.102,5.1109,5.1262,5.1276,5.1084,5.1082,5.1081,0,5.1085,5.1117,5.1161,5.1165,5.1155,5.1177,5.1174,5.1171,5.1182,5.1192,5.1198,5.1212,5.1219,5.1231,5.1204,5.1168,5.1257,5.12,5.1247,5.1248,5.1266,5.1265,5.1421,5.1276,5.1276,5.1276,5.1275,0,5.1201,5.1244,5.1208,5.1236,5.1284,5.125,5.1298,5.129,5.1288,5.1313,5.1272,5.1296,5.1261,5.1282,5.1261,5.1304,5.1308,5.13,5.1293,5.1302,5.1303,5.1307,5.1299,5.128,5.1279,5.1278,5.1277,0,5.1325,5.1303,5.1348,5.1336,5.1334,5.137,5.1359,5.1384,5.137,5.1402,5.1408,5.1385,5.1407,5.1382,5.1403,5.1389,5.1447,5.1432,5.1447,5.1442,5.149,5.1485,5.1652,5.1672,5.1516,5.1517,5.1519,0,5.1399,5.1431,5.1423,5.1437,5.1437,5.146,5.1471,5.144,5.1453,5.1456,5.1481,5.15,5.1513,5.1552,5.1537,5.1553,5.1536,5.1594,5.1538,5.1546,5.1535,5.1533,5.1536,5.1604,5.1606,5.1608,5.1609,0,5.1533,5.1521,5.1538,5.1552,5.1567,5.1576,5.1582,5.1596,5.1564,5.1581,5.1604,5.1615,5.1636,5.1656,5.1667,5.1664,5.1631,5.1627,5.1638,5.1647,5.1654,5.165,5.1476,5.1623,5.1621,5.162,5.1619,5.1619,5.1633,5.166,5.1658,5.1679,5.1681,5.1688,5.1711,5.17,5.1719,5.1734,5.1715,5.1743,5.1742,5.1755,5.1756,5.1777,5.1752,5.1769,5.1773,5.1778,5.1784,5.1652,5.1779,5.1779,5.1778,5.1778,5.1778,0,5.1764,5.1761,5.1781,5.1791,5.1808,5.1777,5.1783,5.1799,5.1824,5.1827,5.1841,5.1868,5.1887,5.1874,5.189,5.191,5.1895,5.1915,5.1912,5.1912,5.1806,5.1794,5.1926,5.1926,5.1926,5.1926,5.1926,5.1926,5.1834,5.1877,5.1865,5.1909,5.1906,5.1933,5.1939,5.1945,5.1947,5.1979,5.1995,5.1987,5.1983,5.1999,5.2015,5.2011,5.2018,5.2043,5.2033,5.1934,5.1919,5.1905,5.1893,5.2045,5.2045,5.2137,5.2138,5.2139]}]]